This is the latest recevied weather packets stored in our database for station/object HA9MJ-10. If no packets are shown the sender has not sent any weather packets the latest 10 day(s).
| Time | Temp. | Humidity | Pressure | Rain* | Wind** | Luminosity | Snow |
|---|---|---|---|---|---|---|---|
| 1777943009 | 20.56° C | 41% | 1015.1 hPa | - | - | - | - |
| 1777939408 | 20.56° C | 40% | 1015.3 hPa | - | - | - | - |
| 1777935808 | 20.56° C | 40% | 1015.6 hPa | - | - | - | - |
| 1777932208 | 20.56° C | 40% | 1015.8 hPa | - | - | - | - |
| 1777928608 | 20.56° C | 40% | 1015.8 hPa | - | - | - | - |
| 1777925008 | 20.56° C | 39% | 1015.8 hPa | - | - | - | - |
| 1777921408 | 20.56° C | 39% | 1015.5 hPa | - | - | - | - |
| 1777917807 | 20.56° C | 38% | 1015.3 hPa | - | - | - | - |
| 1777914207 | 20.56° C | 38% | 1015.2 hPa | - | - | - | - |
| 1777910607 | 20.56° C | 37% | 1015.2 hPa | - | - | - | - |
| 1777907007 | 21.11° C | 36% | 1015.6 hPa | - | - | - | - |
| 1777903411 | 21.11° C | 33% | 1016.1 hPa | - | - | - | - |
| 1777899811 | 21.11° C | 30% | 1016.8 hPa | - | - | - | - |
| 1777896211 | 21.11° C | 30% | 1017.4 hPa | - | - | - | - |
| 1777892611 | 21.11° C | 31% | 1018 hPa | - | - | - | - |
| 1777889010 | 20.56° C | 33% | 1018.8 hPa | - | - | - | - |
| 1777885410 | 20.56° C | 37% | 1019.4 hPa | - | - | - | - |
| 1777881810 | 21.11° C | 43% | 1019.8 hPa | - | - | - | - |
| 1777878210 | 21.11° C | 43% | 1019.7 hPa | - | - | - | - |
| 1777874610 | 21.11° C | 43% | 1019.8 hPa | - | - | - | - |
| 1777871010 | 20.56° C | 43% | 1019.6 hPa | - | - | - | - |
| 1777867410 | 20.56° C | 43% | 1019.2 hPa | - | - | - | - |
| 1777863809 | 20.56° C | 43% | 1019 hPa | - | - | - | - |
| 1777860209 | 20.56° C | 43% | 1019 hPa | - | - | - | - |
| 1777856609 | 20.56° C | 43% | 1019.1 hPa | - | - | - | - |
* Rain since midnight (hover to see other rain measurements)
** Current wind speed in m/s (hover to see current wind gust speed)